Location: Attricourt
(47.4831°N, 5.3898°E)
Time: 14:10:02
(UTC+00:00)

Daily predictions for brighter satellites

Satellite Brightness Start Highest point End
(mag) Time Altitude Azimuth Time Altitude Azimuth Time Altitude Azimuth
CZ-4B R/B 3.7 17:03:49 10° S 17:09:27 72° WSW 17:15:02 10° NNW
Cosmos 1602 Rocket 3.7 17:05:32 10° N 17:09:58 55° ENE 17:14:21 10° SSE
Cosmos 1626 Rocket 3.5 17:05:47 10° N 17:10:16 73° E 17:14:40 10° SSE
Meteor 1-16 Rocket 4.5 17:05:06 10° SSE 17:10:35 49° E 17:15:56 10° NNE
ADEOS Rocket 3.4 17:04:34 10° NNE 17:10:37 76° WNW 17:17:20 10° SSW
BREEZE-M R/B 3.1 17:08:49 10° WSW 17:12:02 77° SSE 17:18:17 10° ENE
USA 229 DEB 4.0 17:05:32 10° NW 17:12:51 87° NE 17:20:33 10° SE
USA 229 4.0 17:05:38 10° NW 17:12:57 86° NE 17:20:38 10° SE
Feng Yun 1-1 Rocket 4.5 17:07:33 10° SSE 17:13:18 61° ENE 17:19:09 10° N
NOAA 12 4.3 17:08:45 10° SSE 17:14:01 79° WSW 17:19:22 10° NNW
Cosmos 1455 Rocket 3.9 17:10:10 10° SSW 17:14:24 55° WNW 17:18:40 10° N
Cosmos 2228 4.3 17:11:24 10° SE 17:14:27 20° E 17:17:31 10° NE
Cosmos 1939 Rocket 3.2 17:13:36 10° SE 17:17:23 41° ENE 17:21:09 10° N
Cosmos 1356 Rocket 3.6 17:13:58 10° S 17:18:03 50° E 17:22:13 10° NNE
Cosmos 1420 Rocket 4.0 17:13:02 10° S 17:18:16 67° ESE 17:23:30 10° NNE
ERS-2 2.1 17:15:20 10° NNE 17:19:00 89° ESE 17:22:38 10° SSW
CZ-4C R/B 4.2 17:15:29 10° WNW 17:19:53 22° NNW 17:24:56 10° NE
Cosmos 1954 Rocket 4.3 17:15:03 10° NNW 17:20:15 76° WSW 17:25:26 10° SSE
Cosmos 1703 3.4 17:18:01 10° N 17:21:52 51° ENE 17:25:42 10° SSE
USA 281 4.2 17:15:53 10° S 17:22:14 52° WSW 17:28:39 10° NNW
CZ-4B R/B 1.3 17:20:51 10° NNE 17:24:12 89° ESE 17:27:26 10° SSW
Cosmos 1908 3.5 17:20:42 10° SSE 17:24:21 46° E 17:28:04 10° NNE
NOSS 3-1 (A) 4.1 17:18:23 10° NW 17:25:52 85° NE 17:34:34 10° SE
CZ-4 R/B 2.1 17:23:19 10° SE 17:26:46 30° ENE 17:30:12 10° N
Cosmos 1943 Rocket 3.3 17:21:35 10° SW 17:26:54 45° NW 17:32:13 10° NNE
CZ-2D R/B 3.7 17:24:02 10° SE 17:27:36 38° ENE 17:31:10 10° N
Cosmos 2279 Rocket 4.3 17:21:21 10° SSW 17:27:36 74° W 17:33:52 10° N
Cosmos 1655 Rocket 4.1 17:21:15 10° N 17:27:40 86° E 17:34:05 10° S
Okean O Rocket 2.7 17:23:27 10° S 17:27:43 49° W 17:31:59 10° NNW
Cosmos 2227 Rocket 3.8 17:24:36 10° N 17:28:10 17° NE 17:31:21 11° ENE
IRS-1C Rocket 4.1 17:23:23 10° SSE 17:28:34 64° ENE 17:33:48 10° N
FengYun 1-2 T 4.4 17:23:05 10° SSE 17:28:46 85° WSW 17:34:28 10° NNW
SMAP 4.2 17:26:23 10° S 17:30:52 48° W 17:35:24 10° NNW
Cosmos 1741 Rocket 4.1 17:26:30 10° NNW 17:31:41 56° ENE 17:36:48 10° SE
USA 305 3.9 17:30:34 10° W 17:34:39 40° NNW 17:38:31 11° ENE
ERBS 2.4 17:31:45 10° WSW 17:35:05 73° NW 17:38:17 11° NE
Cosmos 2263 4.4 17:29:33 10° SSW 17:35:20 78° WNW 17:41:08 10° NNE
ATLAS 5 CENTAUR R/B 2.2 17:32:22 10° WSW 17:36:23 53° NW 17:40:59 10° NE
COSMO-SKYMED 1 2.6 17:33:44 10° NNE 17:38:01 56° E 17:42:17 10° S
ATLAS 2AS CENTAUR R/B 4.5 17:34:19 10° NW 17:40:23 23° N 17:46:14 10° NE
Lacrosse 5 2.2 17:35:27 10° WSW 17:40:30 65° NNW 17:45:33 10° NE
USA 306 3.9 17:36:38 10° W 17:40:40 38° NNW 17:44:16 12° NE
NOSS 2-1 (C) 3.4 17:38:07 10° SW 17:41:25 59° NW 17:44:58 10° NE
USA 276 2.7 17:39:15 10° WNW 17:42:24 54° SSW 17:45:14 12° SE
H-2A R/B 2.8 17:39:52 10° SE 17:44:38 34° ENE 17:49:29 10° N
USA 215 3.6 17:40:04 13° E 17:45:42 51° NNE 17:52:00 10° NW
SAR-Lupe-4 3.6 17:42:43 10° NNE 17:46:20 81° WNW 17:49:55 10° SSW
NOSS 2-1 (D) 3.7 17:43:23 10° WSW 17:46:38 52° NW 17:50:10 10° NNE
ARGOS 4.0 17:42:47 10° ESE 17:47:18 28° ENE 17:51:51 10° N
Okean-O 2.6 17:43:56 10° SSE 17:48:16 59° ENE 17:52:39 10° N
Cosmos 1328 3.7 17:45:17 10° N 17:49:15 83° E 17:53:11 10° S
COSMOS 2487 2.4 17:47:09 10° NNW 17:50:34 58° ENE 17:53:57 10° SSE
SeaSat 1 2.7 17:46:20 10° SE 17:51:02 47° NE 17:55:47 10° NNW
Cosmos 1850 Rocket 4.0 17:46:09 10° NNW 17:51:29 83° ENE 17:56:48 10° SSE
CSL-04 Rocket 4.1 17:48:07 10° SE 17:53:18 42° ENE 17:58:28 10° N
Cosmos 1825 Rocket 3.5 17:54:03 10° N 17:58:32 71° E 18:02:57 10° SSE
Cosmos 1452 Rocket 3.5 17:53:28 10° SSW 17:58:44 89° WNW 18:04:03 10° NNE
HJ-1C 4.3 17:58:45 26° E 17:59:17 28° ENE 18:02:13 10° N
Cosmos 1300 3.1 17:55:48 10° SSE 17:59:19 38° E 18:02:53 10° NNE
YAOGAN 1 2.6 17:55:15 10° SSE 17:59:30 59° ENE 18:03:46 10° N
CZ-4 R/B 4.5 17:56:31 10° SSE 18:00:39 84° WSW 18:04:51 10° NNW
Cosmos 304 Rocket 4.4 17:59:08 10° SW 18:03:51 59° WNW 18:08:36 10° NNE
Cosmos 1400 Rocket 4.0 18:02:59 10° SSE 18:12:02 - NNE 18:05:30 24° ESE
Cosmos 1656 Rocket 4.3 18:01:05 10° SW 18:06:34 59° WNW 18:12:09 10° NNE
CZ-2C R/B 3.3 18:01:46 10° SSE 18:07:33 69° ENE 18:13:17 10° N
Meteor 2-21 Rocket 4.4 18:01:24 10° N 18:07:38 76° E 18:13:46 10° SSE
Cosmos 1244 Rocket 4.5 18:03:32 10° N 18:09:38 58° ENE 18:15:44 10° SSE
Cosmos 2297 Rocket 3.0 18:05:03 10° NNW 18:10:07 32° NE 18:12:08 25° E
Cosmos 2369 Rocket 3.8 18:05:14 10° WSW 18:10:24 35° NW 18:15:37 10° NNE
Cosmos 1689 Rocket 3.0 18:08:23 10° N 18:11:13 48° WNW 18:14:00 10° SSW
SJ-11-01 4.3 18:08:09 10° SSE 18:12:41 53° ENE 18:17:15 10° N
BREEZE-M R/B 3.7 18:04:13 10° W 18:12:58 71° N 18:14:14 34° ENE
Cosmos 1758 Rocket 4.0 18:09:23 10° NNW 18:13:47 63° W 18:18:07 10° S
In-Cosmos 22 Rocket 4.4 18:11:12 10° N 18:16:17 43° ENE 18:19:41 20° SE
Cosmos 1726 Rocket 3.4 18:13:03 10° S 18:17:19 65° E 18:21:39 10° NNE
Cosmos 1818 4.0 18:13:34 10° SW 18:18:56 61° NW 18:24:21 10° NNE
USA 307 4.1 18:17:00 10° WNW 18:20:56 34° N 18:22:42 24° NE
Helios 1A Rocket 3.9 18:20:09 10° S 18:24:10 49° W 18:28:12 10° NNW
CSL-04 Debris 4.1 18:19:17 10° SSE 18:24:41 76° ENE 18:30:09 10° NNW
USA 308 4.1 18:21:37 10° WNW 18:25:32 34° N 18:27:06 26° NE
Ariane Rocket 3.8 18:26:42 31° ENE 18:26:49 31° ENE 18:31:15 10° N
Cosmos 2219 3.6 18:23:41 10° NNW 18:29:12 44° NE 18:30:54 35° E
Timation 2 Rocket 4.1 18:23:22 10° NNW 18:29:52 68° ENE 18:34:14 23° SE
Cosmos 1606 Rocket 3.7 18:25:45 10° SSW 18:30:05 74° W 18:34:29 10° N
FALCON 9 DEB 3.9 18:27:02 10° W 18:30:20 44° NNW 18:31:02 38° NNE
USA 116 4.3 18:25:23 10° NNE 18:30:32 77° ESE 18:35:52 10° S
Geosat 4.2 18:27:03 10° NNE 18:32:05 73° WNW 18:37:05 10° SW
SL-4 R/B 1.9 18:28:51 10° W 18:32:24 64° NNW 18:33:10 49° NE
SL-08 RB Rocket 4.0 18:33:52 42° ENE 18:33:52 42° ENE 18:38:00 10° N
Cosmos 44 4.4 18:33:32 10° S 18:35:52 25° SSE 18:35:52 25° SSE
Cosmos 1340 2.9 18:38:36 10° N 18:41:40 52° NNE 18:41:40 52° NNE
SL-08 ROCKET BODY 4.4 18:36:44 10° N 18:42:44 61° ENE 18:46:19 25° SSE
S3M 4.1 18:40:05 10° SSE 18:45:54 49° E 18:51:46 10° NNE
Cosmos 2058 4.4 18:42:40 10° N 18:44:32 24° NNE 18:44:32 24° NNE
Cosmos 2058 Rocket 2.9 18:43:08 10° S 18:47:35 85° E 18:52:07 10° N
CRYOSAT 2 4.2 18:43:26 10° N 18:48:18 70° E 18:53:09 10° S
Cosmos 1331 Rocket 4.0 18:46:07 10° SSW 18:51:17 80° WNW 18:56:29 10° NNE
Cosmos 2228 4.3 18:47:41 10° SSW 18:51:42 41° WNW 18:55:45 10° N
Meteor 2-15 4.4 18:48:25 10° S 18:54:26 61° E 19:00:29 10° NNE
Cosmos 292 Rocket 3.6 18:52:27 10° SSW 18:57:14 88° ESE 18:59:05 38° NNE
MOS 1 Rocket 3.4 18:54:33 10° N 18:59:01 73° WNW 19:03:43 10° SSW
Cosmos 1417 Rocket 4.3 18:53:42 10° S 18:59:53 76° E 19:06:12 10° NNE
CZ-4 R/B 3.6 18:58:32 10° SSW 19:01:49 25° W 19:05:04 10° NW
NOSS 2-2 (E) 4.4 18:56:24 10° NW 19:02:00 83° NE 19:04:15 47° SE
Aureole 3 Rocket 3.3 19:02:00 10° SSW 19:05:21 57° WNW 19:09:44 10° N
MetOp-A 4.3 19:06:21 54° NE 19:06:21 54° NE 19:11:00 10° N
CZ-4C R/B 4.3 19:06:01 10° NW 19:10:50 22° NNE 19:12:49 19° NE
Cosmos 2227 Rocket 2.1 19:07:39 10° NNW 19:13:11 69° NE 19:13:11 69° NE
Cosmos 1486 Rocket 4.1 19:08:11 10° NNW 19:13:00 65° NNE 19:13:00 65° NNE
USA 305 4.2 19:11:23 10° WNW 19:14:39 33° NNW 19:14:39 33° NNW
Cosmos 1302 Rocket 3.9 19:11:14 10° SSW 19:16:03 76° SSW 19:16:03 76° SSW
NOSS 2-2 (D) 4.4 19:12:24 10° NW 19:17:56 88° NE 19:19:03 65° SE
Cosmos 1553 Rocket 4.2 19:13:10 10° SSW 19:19:32 72° W 19:25:53 10° N
Cosmos 1892 4.4 19:15:51 10° NNW 19:17:51 28° NNW 19:17:51 28° NNW
USA 306 4.4 19:17:24 10° WNW 19:20:24 32° NNW 19:20:24 32° NNW
ATLAS 5 CENTAUR R/B 4.1 19:19:15 10° WNW 19:22:11 17° NNW 19:24:08 14° N
H-2A R/B 3.4 19:18:57 10° SSW 19:23:57 40° W 19:29:04 10° NNW
Lacrosse 5 3.2 19:19:45 10° WNW 19:24:14 30° N 19:24:49 29° N
Cosmos 968 Rocket 3.8 19:20:24 10° NNW 19:24:40 59° N 19:24:40 59° N
ARGOS 3.9 19:23:46 20° SSW 19:27:19 49° W 19:32:36 10° NNW
USA 215 3.2 19:27:26 61° SSE 19:28:34 75° SW 19:35:08 10° NW
SeaSat 1 4.1 19:25:37 16° SSW 19:28:42 29° WSW 19:33:01 10° NW
Cosmos 2263 Rocket 4.0 19:27:12 10° N 19:29:39 19° NNE 19:29:39 19° NNE
CZ-2C R/B 3.9 19:26:21 10° NNE 19:29:06 30° NNE 19:29:06 30° NNE
ATLAS 2AS CENTAUR R/B 3.8 19:27:01 10° NW 19:33:50 33° NNE 19:34:19 32° NNE
BREEZE-M R/B 4.2 19:30:16 10° WNW 19:35:10 76° N 19:35:53 70° ENE
Cosmos 1745 Rocket 4.5 19:37:12 10° NNW 19:43:19 58° W 19:45:39 37° SSW
Cosmos 2297 Rocket 2.9 19:48:56 10° NW 19:53:58 49° W 19:53:58 49° W
Ariane Rocket 4.5 20:06:54 35° WNW 20:06:54 35° WNW 20:10:28 10° NNW
CZ-4C R/B 4.3 20:54:42 10° NW 20:57:59 28° NNW 20:57:59 28° NNW
ATLAS 2AS CENTAUR R/B 4.4 21:18:16 10° NW 21:21:44 30° NW 21:21:44 30° NW
